Weather History for Payson, AZ

Change the Weather History Date:

Monday, November 19, 2012

  Actual Average Record
Temperature  
Mean Temperature 48 °F -  
Max Temperature 60 °F 59 °F 62 °F (2013)
Min Temperature 35 °F 28 °F 33 °F (2011)
Degree Days  
Heating Degree Days 18    
Moisture  
Dew Point 32 °F    
Average Humidity 59    
Maximum Humidity 93    
Minimum Humidity 25    
Precipitation  
Precipitation 0.00 in - - ()
Sea Level Pressure  
Sea Level Pressure 30.30 in    
Wind  
Wind Speed 2 mph (WSW)    
Max Wind Speed 7 mph    
Max Gust Speed -    
Visibility 10 miles    
Events      
Averages and records for this station are not official NWS values.
T = Trace of Precipitation, MM = Missing Value Source: NWS Daily Summary

Daily Weather History Graph

Daily Weather History Graph

Search for Another Location

Airport:

Trip Planner

Search our weather history database for the weather conditions in past years. The results will help you decide how hot, cold, wet, or windy it might be!

Date:

Astronomy

Nov. 19, 2012 Rise Set
Actual Time 7:02 AM MST 5:18 PM MST
Civil Twilight 6:35 AM MST 5:45 PM MST
Nautical Twilight 6:05 AM MST 6:16 PM MST
Astronomical Twilight 5:35 AM MST 6:46 PM MST
Moon 12:13 PM MST (11/19) 11:42 PM MST (11/19)
Length of Visible Light 11h 09m
Length of Day
10h 16m
Waxing Crescent, 41% of the Moon is Illuminated
Nov 19
Waxing Crescent
Nov 20
First Quarter
Nov 28
Full
Dec 6
Last Quarter
Dec 13
New

Hourly Weather History & Observations

Time (MST) Temp. Windchill Dew Point Humidity Pressure Visibility Wind Dir Wind Speed Gust Speed Precip Events Conditions
12:15 AM 41.0 °F - 33.8 °F 76% 30.26 in 10.0 mi Calm Calm - N/A   Clear
12:35 AM 39.2 °F - 33.8 °F 81% 30.26 in 10.0 mi Calm Calm - N/A   Clear
12:55 AM 39.2 °F 37.0 °F 33.8 °F 81% 30.26 in 10.0 mi WNW 3.5 mph - N/A   Clear
1:15 AM 39.2 °F - 35.6 °F 87% 30.27 in 10.0 mi Calm Calm - N/A   Clear
1:35 AM 39.2 °F 35.9 °F 33.8 °F 81% 30.27 in 10.0 mi WNW 4.6 mph - N/A   Clear
1:55 AM 39.2 °F 37.0 °F 35.6 °F 87% 30.27 in 10.0 mi NW 3.5 mph - N/A   Clear
2:15 AM 39.2 °F - 35.6 °F 87% 30.27 in 10.0 mi Calm Calm - N/A   Clear
3:15 AM 37.4 °F 34.9 °F 35.6 °F 93% 30.26 in 10.0 mi NW 3.5 mph - N/A   Clear
3:55 AM 37.4 °F 34.9 °F 35.6 °F 93% 30.25 in 10.0 mi WNW 3.5 mph - N/A   Clear
4:15 AM 37.4 °F - 35.6 °F 93% 30.25 in 10.0 mi Calm Calm - N/A   Clear
4:35 AM 37.4 °F 34.9 °F 33.8 °F 87% 30.26 in 10.0 mi WNW 3.5 mph - N/A   Clear
4:55 AM 37.4 °F - 33.8 °F 87% 30.26 in 10.0 mi Calm Calm - N/A   Clear
5:15 AM 37.4 °F - 33.8 °F 87% 30.27 in 10.0 mi Calm Calm - N/A   Clear
5:35 AM 37.4 °F 34.9 °F 33.8 °F 87% 30.27 in 10.0 mi WNW 3.5 mph - N/A   Clear
5:55 AM 37.4 °F - 33.8 °F 87% 30.27 in 10.0 mi Calm Calm - N/A   Clear
6:15 AM 35.6 °F 32.8 °F 33.8 °F 93% 30.28 in 10.0 mi WNW 3.5 mph - N/A   Clear
6:35 AM 37.4 °F - 33.8 °F 87% 30.28 in 10.0 mi Calm Calm - N/A   Clear
6:55 AM 37.4 °F 34.9 °F 33.8 °F 87% 30.29 in 10.0 mi WNW 3.5 mph - N/A   Clear
7:15 AM 37.4 °F 34.9 °F 33.8 °F 87% 30.30 in 10.0 mi WNW 3.5 mph - N/A   Clear
7:35 AM 35.6 °F 32.8 °F 33.8 °F 93% 30.30 in 10.0 mi WNW 3.5 mph - N/A   Clear
7:55 AM 37.4 °F 33.8 °F 35.6 °F 93% 30.31 in 10.0 mi WNW 4.6 mph - N/A   Clear
8:15 AM 39.2 °F - 35.6 °F 87% 30.32 in 10.0 mi Calm Calm - N/A   Clear
8:35 AM 42.8 °F - 35.6 °F 76% 30.33 in 10.0 mi Calm Calm - N/A   Clear
8:55 AM 46.4 °F - 37.4 °F 71% 30.34 in 10.0 mi Calm Calm - N/A   Clear
9:15 AM 51.8 °F - 37.4 °F 58% 30.34 in 10.0 mi Calm Calm - N/A   Clear
9:35 AM 53.6 °F - 35.6 °F 51% 30.34 in 10.0 mi Calm Calm - N/A   Clear
9:55 AM 53.6 °F - 35.6 °F 51% 30.35 in 10.0 mi East 3.5 mph - N/A   Clear
10:15 AM 55.4 °F - 35.6 °F 47% 30.35 in 10.0 mi SSE 3.5 mph - N/A   Clear
10:35 AM 55.4 °F - 35.6 °F 47% 30.35 in 10.0 mi SE 5.8 mph - N/A   Clear
10:55 AM 55.4 °F - 35.6 °F 47% 30.35 in 10.0 mi East 3.5 mph - N/A   Clear
11:15 AM 57.2 °F - 33.8 °F 41% 30.35 in 10.0 mi ESE 6.9 mph - N/A   Clear
11:35 AM 57.2 °F - 32.0 °F 38% 30.34 in 10.0 mi SSE 5.8 mph - N/A   Clear
11:55 AM 57.2 °F - 32.0 °F 38% 30.33 in 10.0 mi SSW 3.5 mph - N/A   Clear
12:15 PM 57.2 °F - 32.0 °F 38% 30.33 in 10.0 mi South 4.6 mph - N/A   Clear
12:35 PM 59.0 °F - 32.0 °F 36% 30.32 in 10.0 mi SSW 4.6 mph - N/A   Clear
12:55 PM 60.8 °F - 32.0 °F 34% 30.31 in 10.0 mi SSW 4.6 mph - N/A   Clear
1:15 PM 60.8 °F - 32.0 °F 34% 30.30 in 10.0 mi ESE 5.8 mph - N/A   Clear
1:35 PM 60.8 °F - 32.0 °F 34% 30.29 in 10.0 mi SSE 6.9 mph - N/A   Clear
1:55 PM 60.8 °F - 32.0 °F 34% 30.29 in 10.0 mi Calm Calm - N/A   Clear
2:15 PM 60.8 °F - 32.0 °F 34% 30.28 in 10.0 mi SE 4.6 mph - N/A   Clear
2:35 PM 60.8 °F - 30.2 °F 31% 30.28 in 10.0 mi SSE 6.9 mph - N/A   Clear
2:55 PM 60.8 °F - 28.4 °F 29% 30.28 in 10.0 mi SW 4.6 mph - N/A   Clear
3:15 PM 60.8 °F - 26.6 °F 27% 30.28 in 10.0 mi Calm Calm - N/A   Clear
3:35 PM 60.8 °F - 26.6 °F 27% 30.28 in 10.0 mi South 5.8 mph - N/A   Clear
3:55 PM 60.8 °F - 26.6 °F 27% 30.28 in 10.0 mi SSW 4.6 mph - N/A   Clear
4:15 PM 60.8 °F - 24.8 °F 25% 30.28 in 10.0 mi SSW 3.5 mph - N/A   Clear
4:35 PM 60.8 °F - 26.6 °F 27% 30.28 in 10.0 mi SSE 3.5 mph - N/A   Clear
4:55 PM 59.0 °F - 26.6 °F 29% 30.29 in 10.0 mi Calm Calm - N/A   Clear
5:15 PM 57.2 °F - 26.6 °F 31% 30.29 in 10.0 mi South 3.5 mph - N/A   Clear
5:35 PM 55.4 °F - 30.2 °F 38% 30.29 in 10.0 mi SW 3.5 mph - N/A   Clear
5:55 PM 55.4 °F - 30.2 °F 38% 30.29 in 10.0 mi SSW 3.5 mph - N/A   Clear
6:15 PM 55.4 °F - 30.2 °F 38% 30.29 in 10.0 mi SSW 3.5 mph - N/A   Clear
6:35 PM 53.6 °F - 30.2 °F 41% 30.30 in 10.0 mi South 3.5 mph - N/A   Clear
7:15 PM 51.8 °F - 30.2 °F 44% 30.31 in 10.0 mi Calm Calm - N/A   Clear
7:35 PM 50.0 °F - 30.2 °F 47% 30.31 in 10.0 mi Calm Calm - N/A   Clear
7:55 PM 48.2 °F - 30.2 °F 50% 30.31 in 10.0 mi Calm Calm - N/A   Clear
8:15 PM 46.4 °F - 30.2 °F 53% 30.32 in 10.0 mi Calm Calm - N/A   Clear
8:35 PM 46.4 °F 45.2 °F 30.2 °F 53% 30.32 in 10.0 mi WNW 3.5 mph - N/A   Clear
8:55 PM 44.6 °F 42.2 °F 30.2 °F 57% 30.32 in 10.0 mi WNW 4.6 mph - N/A   Clear
9:15 PM 42.8 °F 40.1 °F 30.2 °F 61% 30.33 in 10.0 mi WNW 4.6 mph - N/A   Clear
9:35 PM 42.8 °F 41.1 °F 30.2 °F 61% 30.33 in 10.0 mi WNW 3.5 mph - N/A   Clear
10:15 PM 42.8 °F 39.3 °F 30.2 °F 61% 30.33 in 10.0 mi NW 5.8 mph - N/A   Clear
10:35 PM 41.0 °F 38.0 °F 30.2 °F 65% 30.33 in 10.0 mi WNW 4.6 mph - N/A   Clear
10:55 PM 42.8 °F 41.1 °F 30.2 °F 61% 30.32 in 10.0 mi NW 3.5 mph - N/A   Clear
11:15 PM 42.8 °F 40.1 °F 30.2 °F 61% 30.32 in 10.0 mi WNW 4.6 mph - N/A   Clear
11:35 PM 44.6 °F 43.1 °F 30.2 °F 57% 30.32 in 10.0 mi NW 3.5 mph - N/A   Clear
11:55 PM 42.8 °F - 28.4 °F 57% 30.32 in 10.0 mi Calm Calm - N/A   Clear